FW5295 Weather Reports


time (UTC)temp
F
wind
direction
speed
knots
gust
knots
rain 1hr
in
rain 24hr
in
rain mn
in
humidity
%
barometer
mb
20260903194810 85 283 0.9 3.5 0.00 0.00 0.00 73 1012.9
20260903194307 85 192 0.0 4.3 0.00 0.00 0.00 74 1013.3
20260903193807 85 147 0.9 4.3 0.00 0.00 0.00 72 1012.9
20260903193308 84 175 1.7 5.2 0.00 0.00 0.00 73 1013.3
20260903192808 85 187 0.0 7.8 0.00 0.00 0.00 72 1013.3
20260903192307 85 167 3.5 7.8 0.00 0.00 0.00 72 1013.3
20260903191806 85 156 5.2 5.2 0.00 0.00 0.00 74 1013.3
20260903191533 84 227 1.7 5.2 0.00 0.00 0.00 74 1013.3
20260903190806 84 242 1.7 4.3 0.00 0.00 0.00 74 1013.3
20260903190305 84 116 0.0 5.2 0.00 0.00 0.00 75 1013.3
20260903185802 83 131 4.3 6.1 0.00 0.00 0.00 75 1013.7
20260903185302 83 157 0.9 6.1 0.00 0.00 0.00 75 1013.3
20260903185023 83 158 3.5 5.2 0.00 0.00 0.00 76 1013.3
20260903184301 82 147 0.9 5.2 0.00 0.00 0.00 76 1013.7
20260903183802 82 152 2.6 5.2 0.00 0.00 0.00 76 1013.7
20260903183302 81 133 1.7 5.2 0.00 0.00 0.00 77 1013.7
20260903182800 82 54 5.2 5.2 0.00 0.00 0.00 77 1014.0
20260903182259 81 17 0.0 4.3 0.00 0.00 0.00 76 1013.7
20260903181759 81 151 1.7 7.8 0.00 0.00 0.00 78 1014.0
20260903181301 80 92 2.6 7.8 0.00 0.00 0.00 79 1014.0
20260903180759 80 70 3.5 5.2 0.00 0.00 0.00 79 1014.0
20260903180257 80 83 2.6 8.7 0.00 0.00 0.00 82 1014.3
20260903175756 79 191 1.7 8.7 0.00 0.00 0.00 80 1014.3
20260903175258 79 42 1.7 7.8 0.00 0.00 0.00 82 1014.3
20260903174758 79 13 1.7 7.8 0.00 0.00 0.00 80 1014.3
20260903174258 79 117 1.7 7.8 0.00 0.00 0.00 81 1014.3
20260903173809 79 111 2.6 7.8 0.00 0.00 0.00 82 1014.3
20260903173525 78 150 0.9 6.1 0.00 0.00 0.00 82 1014.3
20260903172754 79 343 2.6 5.2 0.00 0.00 0.00 81 1014.7
20260903172253 79 334 2.6 5.2 0.00 0.00 0.00 83 1014.7
20260903172023 78 340 3.5 6.1 0.00 0.00 0.00 81 1014.7
20260903171254 78 18 1.7 7.8 0.00 0.00 0.00 82 1014.7
20260903170752 78 42 4.3 7.8 0.00 0.00 0.00 82 1014.7
20260903170305 78 41 1.7 8.7 0.00 0.00 0.00 81 1014.7
20260903165751 78 79 4.3 8.7 0.00 0.00 0.00 83 1014.7
20260903165515 78 40 3.5 7.8 0.00 0.00 0.00 80 1015.0
20260903164751 79 67 3.5 7.8 0.00 0.00 0.00 78 1015.0
20260903164249 80 50 3.5 7.0 0.00 0.00 0.00 78 1015.0
20260903163749 79 329 4.3 4.3 0.00 0.00 0.00 80 1015.0
20260903163250 79 93 2.6 7.0 0.00 0.00 0.00 81 1015.0
20260903162748 79 308 1.7 7.0 0.00 0.00 0.00 81 1015.0
20260903162247 79 54 0.9 5.2 0.00 0.00 0.00 80 1015.4
20260903161747 80 358 1.7 5.2 0.00 0.00 0.00 79 1014.7
20260903161248 80 1 4.3 6.1 0.00 0.00 0.00 79 1015.0
20260903160747 80 23 1.7 7.8 0.00 0.00 0.00 79 1014.7
20260903160244 81 21 5.2 7.8 0.00 0.00 0.00 77 1014.7
20260903155745 81 274 4.3 7.0 0.00 0.00 0.00 76 1014.3
20260903155512 81 23 1.7 6.1 0.00 0.00 0.00 77 1014.3
20260903154745 81 344 4.3 6.1 0.00 0.00 0.00 78 1014.3
20260903154244 80 24 1.7 5.2 0.00 0.00 0.00 81 1014.3
20260903154002 80 14 1.7 4.3 0.00 0.00 0.00 81 1014.3
20260903153518 81 295 1.7 5.2 0.00 0.00 0.00 80 1014.3
20260903152741 81 9 1.7 6.1 0.00 0.00 0.00 80 1014.3
20260903152507 82 326 3.5 6.1 0.00 0.00 0.00 80 1014.7
20260903151743 83 303 2.6 3.5 0.00 0.00 0.00 82 1014.3
20260903151242 83 333 1.7 1.7 0.00 0.00 0.00 80 1013.7
20260903150739 83 273 0.9 3.5 0.00 0.00 0.00 78 1013.7
20260903150240 83 267 1.7 3.5 0.00 0.00 0.00 78 1013.3
20260903145740 83 293 1.7 2.6 0.00 0.00 0.00 78 1013.3
20260903145727 84 274 0.9 4.3 0.00 0.00 0.00 76 1013.3
20260903144737 84 242 1.7 4.3 0.00 0.00 0.00 76 1013.3
20260903144238 85 247 1.7 4.3 0.00 0.00 0.00 76 1013.3
20260903143737 84 274 0.9 5.2 0.00 0.00 0.00 77 1013.3
20260903143236 83 253 1.7 5.2 0.00 0.00 0.00 78 1013.3
20260903142736 83 252 1.7 3.5 0.00 0.00 0.00 80 1013.3
20260903142236 82 261 0.9 3.5 0.00 0.00 0.00 79 1013.3
20260903141734 82 248 1.7 2.6 0.00 0.00 0.00 80 1013.3
20260903141459 82 249 0.0 5.2 0.00 0.00 0.00 80 1012.9
20260903140733 82 265 2.6 5.2 0.00 0.00 0.00 81 1012.9
20260903140233 81 237 1.7 3.5 0.00 0.00 0.00 81 1012.9
20260903135733 81 240 1.7 3.5 0.00 0.00 0.00 82 1013.3
20260903135233 80 258 1.7 3.5 0.00 0.00 0.00 82 1013.3
20260903134734 80 219 1.7 4.3 0.00 0.00 0.00 83 1013.3
20260903134232 80 250 1.7 5.2 0.00 0.00 0.00 83 1012.9
20260903133731 79 259 1.7 5.2 0.00 0.00 0.00 83 1013.3
20260903133229 79 256 1.7 4.3 0.00 0.00 0.00 83 1013.3
20260903132729 79 230 2.6 4.3 0.00 0.00 0.00 84 1013.3
20260903132230 79 236 3.5 4.3 0.00 0.00 0.00 85 1013.3
20260903131956 79 188 1.7 3.5 0.00 0.00 0.00 85 1013.3
20260903131230 78 255 1.7 4.3 0.00 0.00 0.00 85 1013.3
20260903130728 78 234 1.7 4.3 0.00 0.00 0.00 86 1013.3
20260903130429 77 253 1.7 2.6 0.00 0.00 0.00 87 1013.3
20260903130319 78 232 2.6 3.5 0.00 0.00 0.00 87 1012.9
20260903125452 77 245 1.7 3.5 0.00 0.00 0.00 87 1013.3
20260903124726 77 242 0.0 3.5 0.00 0.00 0.00 87 1013.3
20260903124225 77 259 1.7 2.6 0.00 0.00 0.00 88 1013.3
20260903123723 76 233 1.7 2.6 0.00 0.00 0.00 88 1013.3
20260903123224 76 263 1.7 3.5 0.00 0.00 0.00 88 1013.3
20260903122722 76 230 1.7 4.3 0.00 0.00 0.00 88 1013.3
20260903122222 76 250 1.7 4.3 0.00 0.00 0.00 89 1013.3
20260903121724 76 244 1.7 3.5 0.00 0.00 0.00 89 1013.3
20260903121713 76 236 1.7 2.6 0.00 0.00 0.00 89 1013.3
20260903120943 76 235 1.7 2.6 0.00 0.00 0.00 89 1013.3
20260903120234 76 230 1.7 3.5 0.00 0.00 0.00 89 1013.3
20260903115721 75 222 1.7 3.5 0.00 0.00 0.00 90 1013.3
20260903115220 75 222 1.7 3.5 0.00 0.00 0.00 90 1013.3
20260903114718 75 228 2.6 3.5 0.00 0.00 0.00 90 1013.7
20260903114218 75 233 1.7 2.6 0.00 0.00 0.00 90 1013.7
20260903113718 75 249 0.9 2.6 0.00 0.00 0.00 90 1013.3
20260903113217 75 248 1.7 2.6 0.00 0.00 0.00 90 1013.3
20260903112732 75 225 1.7 3.5 0.00 0.00 0.00 90 1013.3
20260903112215 75 218 1.7 3.5 0.00 0.00 0.00 90 1013.3
20260903111717 75 235 2.6 3.5 0.00 0.00 0.00 90 1013.3
20260903111216 75 216 1.7 3.5 0.00 0.00 0.00 90 1013.3
20260903110936 75 212 1.7 2.6 0.00 0.00 0.00 90 1013.3
20260903110213 76 212 0.0 3.5 0.00 0.00 0.00 89 1013.3
20260903105714 76 232 2.6 2.6 0.00 0.00 0.00 89 1013.3
20260903105432 76 236 0.9 2.6 0.00 0.00 0.00 89 1013.7
20260903104712 76 226 1.7 3.5 0.00 0.00 0.00 89 1013.3
20260903104441 76 235 0.9 3.5 0.00 0.00 0.00 89 1012.9
20260903103712 76 228 1.7 2.6 0.00 0.00 0.00 90 1012.9
20260903103436 76 262 0.9 3.5 0.00 0.00 0.00 90 1012.9
20260903102711 76 229 0.9 3.5 0.00 0.00 0.00 90 1012.9
20260903102210 76 235 2.6 3.5 0.00 0.00 0.00 90 1012.9
20260903102151 76 229 1.7 3.5 0.00 0.00 0.00 90 1012.9
20260903101208 76 228 1.7 2.6 0.00 0.00 0.00 90 1013.3
20260903100710 76 198 1.7 2.6 0.00 0.00 0.00 90 1012.9
20260903100207 76 225 1.7 2.6 0.00 0.00 0.00 90 1013.3
20260903095708 76 210 1.7 2.6 0.00 0.00 0.00 90 1012.9
20260903095425 76 234 1.7 2.6 0.00 0.00 0.00 90 1012.9
20260903094707 76 251 0.9 2.6 0.00 0.00 0.00 90 1012.9
20260903094205 76 235 1.7 2.6 0.00 0.00 0.00 90 1012.9
20260903093705 76 228 1.7 1.7 0.00 0.00 0.00 90 1012.9
20260903093206 76 240 0.0 1.7 0.00 0.00 0.00 90 1012.9
20260903092930 76 249 0.0 1.7 0.00 0.00 0.00 89 1012.9
20260903092425 76 231 0.9 1.7 0.00 0.00 0.00 89 1012.9
20260903092042 76 219 0.0 1.7 0.00 0.00 0.00 89 1012.9
20260903091930 76 220 0.9 1.7 0.00 0.00 0.00 89 1012.9
20260903090921 77 193 0.0 1.7 0.00 0.00 0.00 88 1012.9
20260903090201 77 231 0.0 1.7 0.00 0.00 0.00 88 1012.9
20260903085923 77 224 0.0 1.7 0.00 0.00 0.00 88 1012.9
20260903085201 77 259 0.0 1.7 0.00 0.00 0.00 88 1012.9
20260903084928 77 240 0.0 2.6 0.00 0.00 0.00 88 1012.9
20260903084201 77 220 0.9 2.6 0.00 0.00 0.00 88 1012.9
20260903083919 77 308 0.9 1.7 0.00 0.00 0.00 88 1012.9
20260903083200 77 308 0.9 2.6 0.00 0.00 0.00 88 1012.9
20260903082918 77 248 0.9 2.6 0.00 0.00 0.00 88 1012.9
20260903082647 77 245 1.7 2.6 0.00 0.00 0.00 88 1012.5
20260903081657 78 237 0.9 2.6 0.00 0.00 0.00 88 1012.9
20260903081156 78 224 1.7 2.6 0.00 0.00 0.00 88 1012.5
20260903080655 78 231 1.7 2.6 0.00 0.00 0.00 88 1012.5
20260903080157 78 227 1.7 2.6 0.00 0.00 0.00 88 1012.5
20260903075655 78 233 1.7 2.6 0.00 0.00 0.00 88 1012.9
20260903075157 78 225 0.0 1.7 0.00 0.00 0.00 88 1012.9
20260903074916 78 190 1.7 1.7 0.00 0.00 0.00 88 1012.9
20260903074153 78 231 0.0 1.7 0.00 0.00 0.00 88 1012.5
20260903073653 78 250 0.9 1.7 0.00 0.00 0.00 88 1012.9
20260903073152 78 241 0.0 1.7 0.00 0.00 0.00 88 1012.9
20260903072653 78 221 0.9 1.7 0.00 0.00 0.00 88 1012.5
20260903072153 78 204 0.9 1.7 0.00 0.00 0.00 88 1012.9
20260903071652 78 231 1.7 3.5 0.00 0.00 0.00 88 1012.5
20260903071151 78 240 1.7 3.5 0.00 0.00 0.00 88 1012.9
20260903070908 78 235 0.9 3.5 0.00 0.00 0.00 88 1012.9
20260903070149 78 243 0.9 3.5 0.00 0.00 0.00 89 1012.9
20260903065650 78 229 1.7 1.7 0.00 0.00 0.00 89 1012.9
20260903065149 78 226 1.7 1.7 0.00 0.00 0.00 89 1012.9
20260903064648 79 251 1.7 2.6 0.00 0.00 0.00 88 1012.9
20260903064148 79 251 0.9 2.6 0.00 0.00 0.00 88 1012.9
20260903063647 79 242 2.6 3.5 0.00 0.00 0.00 88 1013.3
20260903063146 79 239 0.9 3.5 0.00 0.00 0.00 88 1013.3
20260903062646 79 245 1.7 2.6 0.00 0.00 0.00 88 1012.9
20260903062145 79 248 1.7 3.5 0.00 0.00 0.00 88 1012.9
20260903061659 79 259 1.7 3.5 0.00 0.00 0.00 89 1013.3
20260903061406 79 256 1.7 2.6 0.00 0.00 0.00 89 1012.9
20260903060643 79 232 2.6 2.6 0.00 0.00 0.00 89 1013.3
20260903060145 78 264 1.7 2.6 0.00 0.00 0.00 89 1013.3
20260903055644 79 256 1.7 2.6 0.00 0.00 0.00 89 1012.9
20260903055408 79 238 0.0 2.6 0.00 0.00 0.00 89 1012.9
20260903054642 79 257 0.9 2.6 0.00 0.00 0.00 89 1012.9
20260903054141 79 228 1.7 2.6 0.00 0.00 0.00 89 1012.9
20260903053642 79 246 1.7 2.6 0.00 0.00 0.00 89 1012.9
20260903053142 79 254 1.7 2.6 0.00 0.00 0.00 89 1012.9
20260903052859 79 237 1.7 2.6 0.00 0.00 0.00 89 1012.9
20260903052140 79 247 1.7 2.6 0.00 0.00 0.00 89 1013.3
20260903051640 79 248 1.7 3.5 0.00 0.00 0.00 89 1012.9
20260903051141 79 261 1.7 3.5 0.00 0.00 0.00 89 1013.3
20260903050638 79 267 1.7 2.6 0.00 0.00 0.00 89 1012.9
20260903050407 79 262 1.7 2.6 0.00 0.00 0.00 89 1013.3
20260903045638 79 256 2.6 2.6 0.00 0.00 0.00 89 1013.3
20260903045137 79 266 1.7 2.6 0.00 0.00 0.00 89 1013.3
20260903044637 79 260 1.7 1.7 0.00 0.00 0.00 90 1012.9
20260903044136 79 246 1.7 1.7 0.00 0.00 0.00 90 1012.9
20260903043636 79 241 0.9 2.6 0.00 0.00 0.00 90 1012.9
20260903043136 79 193 0.0 2.6 0.00 0.00 0.00 90 1012.9
20260903042640 79 233 0.9 3.5 0.00 0.00 0.00 90 1012.9
20260903042134 79 250 1.7 3.5 0.00 0.00 0.00 90 1012.9
20260903041633 79 249 0.9 1.7 0.00 0.00 0.00 90 1012.9
20260903041133 79 249 1.7 1.7 0.00 0.00 0.00 90 1012.9
20260903040646 79 269 0.9 1.7 0.00 0.00 0.00 90 1012.9
20260903040144 79 248 1.7 1.7 0.00 0.00 0.00 90 1012.9
20260903035633 79 267 1.7 1.7 0.00 0.00 0.00 90 1012.5
20260903035129 79 233 0.0 1.7 0.00 0.00 0.00 90 1012.9
20260903034854 79 225 0.9 1.7 0.00 0.00 0.00 90 1012.9
20260903034129 79 244 1.7 1.7 0.00 0.00 0.00 90 1012.9
20260903033629 79 258 0.0 1.7 0.00 0.00 0.00 90 1012.9
20260903033129 79 257 0.9 2.6 0.00 0.00 0.00 90 1013.3
20260903032628 79 269 0.0 2.6 0.00 0.00 0.00 91 1012.9
20260903032127 79 259 1.7 2.6 0.00 0.00 0.00 91 1012.9
20260903031628 79 263 1.7 1.7 0.00 0.00 0.00 91 1012.9
20260903031126 78 245 0.9 2.6 0.00 0.00 0.00 92 1012.9
20260903030628 78 254 1.7 2.6 0.00 0.00 0.00 92 1012.9
20260903030126 78 257 0.9 1.7 0.00 0.00 0.00 92 1012.9
20260903030103 78 258 0.9 2.6 0.00 0.00 0.00 92 1012.9
20260903025126 79 265 0.9 2.6 0.00 0.00 0.00 92 1012.9
20260903024626 79 260 1.7 1.7 0.00 0.00 0.00 91 1012.9
20260903024123 79 269 0.0 1.7 0.00 0.00 0.00 91 1012.9
20260903023622 79 262 0.9 1.7 0.00 0.00 0.00 91 1012.5
20260903023347 79 260 1.7 2.6 0.00 0.00 0.00 91 1012.9
20260903022621 79 263 1.7 2.6 0.00 0.00 0.00 90 1012.9
20260903022121 79 269 0.0 1.7 0.00 0.00 0.00 90 1012.9
20260903021621 80 267 0.9 1.7 0.00 0.00 0.00 89 1012.5
20260903021122 80 253 0.0 1.7 0.00 0.00 0.00 89 1012.9
20260903020847 80 255 0.0 1.7 0.00 0.00 0.00 88 1012.5
20260903020134 80 280 0.9 1.7 0.00 0.00 0.00 87 1012.9
20260903015619 80 301 0.0 1.7 0.00 0.00 0.00 87 1012.5
20260903015120 81 296 0.9 1.7 0.00 0.00 0.00 87 1012.5
20260903014620 81 306 1.7 1.7 0.00 0.00 0.00 86 1012.5
20260903014339 81 269 1.7 1.7 0.00 0.00 0.00 85 1012.5
20260903013619 81 269 0.0 1.7 0.00 0.00 0.00 85 1012.2
20260903013118 82 239 0.9 1.7 0.00 0.00 0.00 84 1012.2
20260903012617 82 247 1.7 1.7 0.00 0.00 0.00 84 1012.2
20260903012116 82 230 1.7 1.7 0.00 0.00 0.00 83 1012.2
20260903011836 82 241 0.9 1.7 0.00 0.00 0.00 83 1012.2
20260903011115 82 242 1.7 1.7 0.00 0.00 0.00 82 1012.2
20260903010614 83 241 0.9 1.7 0.00 0.00 0.00 81 1011.9
20260903010117 83 279 0.0 1.7 0.00 0.00 0.00 81 1011.9
20260903005612 83 269 0.0 1.7 0.00 0.00 0.00 80 1012.2
20260903005114 83 242 1.7 2.6 0.00 0.00 0.00 79 1011.9
20260903004613 84 208 0.0 2.6 0.00 0.00 0.00 79 1011.9
20260903004114 84 219 0.9 2.6 0.00 0.00 0.00 79 1011.9
20260903003833 84 241 0.9 3.5 0.00 0.00 0.00 78 1011.9
20260903003118 84 266 1.7 2.6 0.00 0.00 0.00 78 1011.9
20260903002610 85 237 0.9 2.6 0.00 0.00 0.00 77 1011.5
20260903002116 85 218 0.0 1.7 0.00 0.00 0.00 77 1011.5
20260903001610 85 237 1.7 1.7 0.00 0.00 0.00 77 1011.9
20260903001109 85 249 1.7 2.6 0.00 0.00 0.00 77 1011.9
20260903000609 86 229 1.7 2.6 0.00 0.00 0.00 76 1011.9
20260903000120 86 250 0.9 3.5 0.00 0.00 0.00 76 1011.9
20260902235608 86 244 1.7 3.5 0.00 0.00 0.00 76 1011.9
20260902235335 86 244 2.6 2.6 0.00 0.00 0.00 76 1011.9
20260902234608 86 243 1.7 2.6 0.00 0.00 0.00 77 1011.9
20260902234104 87 253 1.7 1.7 0.00 0.00 0.00 77 1011.9
20260902233607 87 216 0.0 2.6 0.00 0.00 0.00 76 1011.5
20260902233105 87 140 1.7 2.6 0.00 0.00 0.00 76 1011.9
20260902232607 87 265 0.9 1.7 0.00 0.00 0.00 75 1011.9
20260902232103 87 266 0.0 2.6 0.00 0.00 0.00 75 1011.9
20260902231603 87 266 1.7 2.6 0.00 0.00 0.00 74 1012.2
20260902231103 88 237 0.9 2.6 0.00 0.00 0.00 74 1011.9
20260902230601 88 231 1.7 2.6 0.00 0.00 0.00 73 1012.2
20260902230108 88 269 0.9 3.5 0.00 0.00 0.00 72 1011.9
20260902225601 88 253 1.7 3.5 0.00 0.00 0.00 72 1012.2
20260902225059 88 245 1.7 2.6 0.00 0.00 0.00 72 1012.2
20260902224600 88 261 1.7 2.6 0.00 0.00 0.00 73 1012.2
20260902224100 88 272 1.7 2.6 0.00 0.00 0.00 73 1012.2
20260902223559 88 264 1.7 3.5 0.00 0.00 0.00 72 1012.2
20260902223057 89 261 1.7 3.5 0.00 0.00 0.00 71 1012.5
20260902222558 89 268 1.7 4.3 0.00 0.00 0.00 70 1012.5
20260902222057 89 258 1.7 4.3 0.00 0.00 0.00 69 1012.2
20260902221558 89 274 0.9 3.5 0.00 0.00 0.00 69 1012.2
20260902221326 89 257 1.7 4.3 0.00 0.00 0.00 67 1012.2
20260902220556 90 280 1.7 5.2 0.00 0.00 0.00 66 1012.2
20260902220108 90 277 2.6 5.2 0.00 0.00 0.00 65 1012.2
20260902215554 90 268 1.7 5.2 0.00 0.00 0.00 66 1012.5
20260902215055 90 272 3.5 5.2 0.00 0.00 0.00 66 1012.2
20260902214554 90 261 1.7 5.2 0.00 0.00 0.00 66 1012.2
20260902214054 91 274 2.6 5.2 0.00 0.00 0.00 64 1012.5
20260902213552 91 259 2.6 6.1 0.00 0.00 0.00 65 1012.2
20260902213053 91 269 0.9 6.1 0.00 0.00 0.00 64 1012.2
20260902212816 91 244 2.6 6.1 0.00 0.00 0.00 65 1012.5
20260902212704 91 260 3.5 6.1 0.00 0.00 0.00 63 1012.5
20260902211818 91 257 3.5 7.0 0.00 0.00 0.00 65 1012.2
20260902211102 91 269 4.3 5.2 0.00 0.00 0.00 63 1012.2
20260902210550 91 274 1.7 5.2 0.00 0.00 0.00 64 1012.5
20260902210103 91 265 3.5 5.2 0.00 0.00 0.00 63 1012.9
20260902205550 91 235 3.5 5.2 0.00 0.00 0.00 64 1012.5
20260902205048 91 256 1.7 5.2 0.00 0.00 0.00 62 1012.5
20260902204547 91 233 1.7 4.3 0.00 0.00 0.00 63 1012.5
20260902204047 91 251 3.5 4.3 0.00 0.00 0.00 63 1012.5
20260902203546 92 277 1.7 5.2 0.00 0.00 0.00 63 1012.5
20260902203046 92 262 0.9 5.2 0.00 0.00 0.00 62 1012.5
20260902202545 92 258 3.5 4.3 0.00 0.00 0.00 64 1012.5
20260902202045 91 227 2.6 4.3 0.00 0.00 0.00 63 1012.9
20260902201545 91 234 2.6 6.1 0.00 0.00 0.00 61 1012.5
20260902201044 91 254 3.5 6.1 0.00 0.00 0.00 62 1012.5
20260902200543 91 242 3.5 6.1 0.00 0.00 0.00 65 1012.5
20260902200042 91 236 1.7 6.1 0.00 0.00 0.00 65 1012.5
20260902195803 91 255 5.2 5.2 0.00 0.00 0.00 63 1012.9